Location: Newark
(54.1978°N, 18.3264°E)
Time: 12:09:13
(UTC+00:00)

OTV 5 (USA 277) - Pass Details

Date: 26 August 2019
Orbit: 295 x 339 km, 54.5° (Epoch: 08 September)

Event Time Altitude Azimuth Distance (km) Brightness Sun altitude
Rises 19:59:02 0° 246° (WSW) 1,994 ? -16.3°
Reaches altitude 10° 20:00:59 10° 242° (WSW) 1,168 ? -16.5°
Enters shadow 20:02:46 37° 224° (SW) 482 ? -16.7°
